384P/Kowalski (2019)

Japanese version
Home page
Updated on December 9, 2019

---------------------------------------------------------------------

* Profile

Designation 384P/2019 O1
Recovery Date July 27, 2019
Magnitude 20.0 mag
Recoverer Hidetaka Sato (Tokyo, Japan)

* Pictures

* Orbital Elements

Epoch 2019 Oct. 4.0 TT = JDT 2458760.5
T 2019 Oct. 11.41150 TT                                 Williams
q   1.1163598            (2000.0)            P               Q
n   0.19936172     Peri.   37.64378     +0.84867465     -0.52876200
a   2.9020721      Node   354.23478     +0.44925492     +0.73334991
e   0.6153232      Incl.    7.28122     +0.27914396     +0.42732735
P   4.94
From 342 observations 2014 Oct. 18-2019 Nov. 3, mean residual 0".5.

* Finding Charts

* Magnitudes Graph

        m1 = 19.0 + 5 log d + 10.0 log r(t - 30)

---------------------------------------------------------------------

The orbital elements are published on M.P.E.C. 2019-V116.
The charts are made with StellaNavigator Ver.10 (AstroArts).
The magnitudes graphs are made with Comet for Windows.

---------------------------------------------------------------------

Copyright(C) Seiichi Yoshida (comet@aerith.net). All rights reserved.